Flag for Germany Weather past 2 weeks in Landsberg am Lech, Bavaria, Germany

34 °F

Passing clouds.

Feels Like: 24 °F
Forecast: 45 / 48 °F
Wind: 14 mph from Southwest

Location: Landsberg

Current Time: Nov 29, 2015 at 3:13:03 AM

Latest Report: Nov 29, 2015 at 2:20 AM

Visibility: N/A

Pressure: 30.15 "Hg (28.00 "Hg at 593m altitude)

Humidity: 75%

Dew point: 27 °F

Location of Landsberg am LechLocation

Historic Weather in Landsberg am Lech — Graph


Landsberg am Lech temperature yesterday

Maximum temperature yesterday: 36 °F (at 7:20 PM)
Minimum temperature yesterday: 28 °F (at 7:20 AM)
Average temperature yesterday: 32 °F

Past Weeks' High & Low Weather Summary

High64 °F (Nov 16, 12:20 PM)100% (Nov 20, 2:20 PM)30.42 "Hg (Nov 20, 2:20 PM)
Low19 °F (Nov 24, 5:20 AM)43% (Nov 15, 5:20 AM)29.39 "Hg (Nov 21, 2:20 PM)
Average41 °F78%29.97 "Hg
* Reported Nov 14 1:20 AM — Nov 29 1:20 AM, Landsberg am Lech, Weather by CustomWeather, © 2015

Note: Actual official high and low records may vary slightly from our data, if they occured in-between our weather recording intervals... More about our weather records


Landsberg am Lech weather history for previous 24 hours

Time TempWeatherWind HumidityBarometerVisibility
1:20 AM
Sun, Nov 29
34 °FPassing clouds.15 mph75%30.15 "HgN/A
12:20 AM34 °FPassing clouds.14 mph75%30.15 "HgN/A
11:20 PM
Sat, Nov 28
34 °FPassing clouds.14 mph81%30.15 "HgN/A
10:20 PM34 °FPassing clouds.13 mph81%30.15 "HgN/A
9:20 PM34 °FPassing clouds.15 mph87%30.15 "HgN/A
8:20 PM34 °FPassing clouds.12 mph87%30.15 "HgN/A
7:47 PM34 °FPassing clouds.12 mph87%30.12 "HgN/A
7:20 PM36 °FPassing clouds.12 mph81%30.12 "HgN/A
6:20 PM34 °FPassing clouds.12 mph93%30.12 "HgN/A
5:20 PM34 °FPassing clouds.12 mph93%30.09 "HgN/A
4:20 PM34 °FPartly sunny.13 mph93%30.07 "HgN/A
3:20 PM34 °FBroken clouds.17 mph93%30.04 "HgN/A
2:20 PM34 °FBroken clouds.17 mph87%30.01 "HgN/A
1:20 PM34 °FLight snow. Partly sunny.18 mph87%29.98 "Hg4 mi
12:49 PM34 °FLight snow. Partly sunny.17 mph93%29.98 "Hg4 mi
12:20 PM32 °FSnow. Ice fog.17 mph93%29.95 "Hg1 mi
11:20 AM32 °FSnow. Mostly cloudy.21 mph93%29.92 "Hg1 mi
10:20 AM32 °FSnow. More clouds than sun.17 mph87%29.92 "Hg1 mi
9:20 AM32 °FSnow. Overcast.21 mph80%29.89 "Hg1 mi
8:20 AM30 °FPartly sunny.12 mph80%29.86 "HgN/A
7:20 AM28 °FPassing clouds.9 mph86%29.86 "HgN/A
6:20 AM30 °FPassing clouds.10 mph80%29.86 "HgN/A
5:20 AM30 °FPassing clouds.13 mph80%29.89 "HgN/A
4:20 AM32 °FPassing clouds.15 mph75%29.89 "HgN/A
3:20 AM32 °FPassing clouds.10 mph75%29.89 "HgN/A
Weather by CustomWeather, © 2015

See weather overviewHow to use our weather pages